Regional Weather Roundup
Issued by NWS

Home | Current Version | Previous Version | Text Only | Print | Product List | Glossary On
Versions: 1 2 3 4 5 6 7 8 9 10 11 12 13 14 15 16 17 18 19 20 21 22 23 24 25 26 27 28
000
ASUS45 KSLC 191510
RWRUT

UTAH REGIONAL WEATHER ROUNDUP
NATIONAL WEATHER SERVICE SALT LAKE CITY UT
900 AM MDT SAT AUG 19 2017

UTZ001>011-023>025-191600-

NORTHERN UTAH

CITY           SKY/WX    TMP DP  RH WIND       PRES   REMARKS
BRIGHAM CITY   SUNNY     62  35  37 CALM      30.10S
HILL AFB       SUNNY     65  33  30 E21       30.11R
LOGAN          SUNNY     60  43  53 N3        30.12S
OGDEN          SUNNY     68  36  30 S8        30.09R
SALT LAKE CITY MOSUNNY   75  43  31 SE7       30.07R
TOOELE VALLEY  SUNNY     77  36  22 S6        30.08S
WENDOVER       MOSUNNY   74  35  24 E3        30.08R
HEBER CITY     SUNNY     55  37  50 CALM      30.21S
WEST JORDAN    SUNNY     74  51  44 S10       30.11S

$$

UTZ011>015-024>027-191600-

CENTRAL/NORTHEAST UTAH

CITY           SKY/WX    TMP DP  RH WIND       PRES   REMARKS
PROVO AIRPORT  SUNNY     68  43  40 CALM      30.13S
MOAB/CANYONLAN MOSUNNY   78  33  19 SE14      30.09R
DELTA          PTSUNNY   68  41  37 W7        30.13R
PRICE          SUNNY     72  36  26 W3        30.20S
ROOSEVELT      SUNNY     68  36  30 CALM      30.19S
VERNAL         SUNNY     71  38  29 NE3       30.17S

$$

UTZ013>016-019>022-027-191600-

SOUTHERN UTAH

CITY           SKY/WX    TMP DP  RH WIND       PRES   REMARKS
BRYCE CANYON   SUNNY     63  41  44 VRB3      30.35S
CEDAR CITY     SUNNY     72  40  31 CALM      30.18S
MILFORD        SUNNY     71  39  31 S9        30.14R
ST GEORGE      SUNNY     78  44  29 SE5       30.03R
HANKSVILLE     MOSUNNY   73  34  23 CALM      30.12S
BLANDING       SUNNY     71  33  24 SE6       30.29R

$$

REGIONAL REPORTS     COLORADO/ARIZONA

CITY           SKY/WX    TMP DP  RH WIND       PRES   REMARKS
CRAIG, CO      SUNNY     61  40  45 CALM      30.25S
GRAND JUNCTION CLOUDY    72  38  29 SE13      30.15R
RIFLE, CO      SUNNY     63  38  39 W3        30.22S
MONTROSE, CO   SUNNY     67  41  38 CALM      30.24R
CORTEZ, CO     SUNNY     67  41  38 SE5       30.23S
COLORADO CITY    N/A     72  46  40 SE5       30.19R
PAGE, AZ       SUNNY     80  37  21 CALM      30.10R
GRAND CANYON   SUNNY     65  38  36 E5        30.31R
KINGMAN, AZ    SUNNY     81  38  21 CALM      30.06R
FLAGSTAFF, AZ  PTSUNNY   67  39  35 CALM      30.34R

$$

REGIONAL REPORTS    NEVADA/IDAHO/WYOMING

CITY           SKY/WX    TMP DP  RH WIND       PRES   REMARKS
LAS VEGAS, NV  MOSUNNY   86  40  19 NW5       29.95R
ELY, NY        PTSUNNY   67  37  33 S5        30.23S
ELKO, NV       SUNNY     60  25  26 CALM      30.16S
POCATELLO, ID  SUNNY     63  31  30 W3        30.11R
BURLEY, ID     SUNNY     62  40  44 SW3       30.08R
FORT BRIDGER,    N/A     68  25  20 SW5       30.30R
EVANSTON, WY     N/A     61  31  32 S6        30.28S
ROCK SPRINGS,  SUNNY     64  30  27 VRB3      30.26R
KEMMERER, WY     N/A     59  32  36 N5        30.30R

$$




USA.gov is the U.S. government's official web portal to all federal, state and local government web resources and services.